Wind_Speed
18 17 15 13 11 9 9 8 8 7 9 9 7 6 6 7 8 9 9 9 9 10 11 12 11 11 12 12 12 12 13 13 13 12 12 11 10 10 9 9 8 8 7 6
21 19 17 15 13 13 13 13 10 9 9 9 8 8 7 9 9 10 10 9 8 8 9 10 10 11 11 12 11 11 12 13 13 12 12 12 11 11 10 9 8 8 7 6
23 19 18 18 17 16 15 14 12 12 11 10 9 10 10 10 9 9 9 8 8 7 8 9 9 10 11 12 12 12 12 13 13 12 12 12 12 11 11 11 9 8 8 8
25 22 22 21 20 18 17 15 15 14 13 11 10 13 14 13 11 9 8 9 9 8 7 8 9 10 11 11 12 12 12 13 13 13 11 12 12 12 11 11 11 10 9 9
26 26 25 24 22 20 18 17 17 15 14 13 12 14 14 15 13 11 9 10 9 9 8 8 8 9 10 11 11 12 12 12 12 12 12 12 12 12 12 12 12 11 11 10
28 27 27 25 23 22 20 18 17 15 15 16 14 14 15 16 15 11 11 11 10 9 9 8 8 9 10 11 11 12 12 12 12 13 13 13 13 13 13 13 12 12 11 11
30 28 27 27 25 24 23 20 18 16 17 18 15 15 16 16 15 13 12 12 11 10 9 9 9 9 10 10 11 12 12 12 13 13 13 13 13 14 14 14 13 12 12 11
30 30 28 28 28 26 25 23 20 17 15 14 14 16 17 17 15 14 13 13 12 11 10 10 9 9 10 11 11 12 12 12 13 14 14 14 14 14 14 14 14 13 12 12
28 29 28 29 29 27 26 25 22 18 16 16 16 16 17 17 16 15 13 13 12 12 10 9 10 10 11 11 12 12 13 13 13 14 14 15 14 14 14 15 14 13 12 11
28 25 26 30 30 29 27 24 23 23 21 19 17 18 18 17 17 16 15 14 13 13 12 11 11 11 11 11 12 13 14 14 14 14 15 15 15 15 15 15 15 15 14 12
32 27 25 29 31 30 29 27 26 25 23 20 18 19 18 18 18 17 17 16 15 14 13 12 12 12 11 11 12 14 15 15 15 15 16 16 16 16 15 15 15 15 14 13
34 30 26 28 30 29 29 29 27 27 27 24 19 18 19 20 21 19 18 16 16 15 14 13 13 13 13 12 13 14 15 16 16 16 17 16 16 16 15 14 14 14 14 13
35 33 30 27 28 29 30 30 29 27 27 25 21 21 22 22 20 19 18 17 18 17 15 14 13 14 14 14 14 15 15 16 17 17 17 17 16 16 15 15 14 14 14 13
35 36 35 28 26 27 30 31 30 29 28 26 24 23 22 22 21 20 19 19 19 17 16 15 15 15 15 15 16 15 16 16 17 17 17 17 17 16 16 15 15 15 15 14
37 37 37 33 25 24 26 30 31 32 31 27 24 24 23 22 22 21 21 20 20 18 17 17 17 16 16 16 16 16 16 16 17 17 17 17 17 15 15 15 15 15 15 15
37 38 38 37 31 26 26 27 29 31 31 30 27 24 24 26 25 25 23 21 21 19 18 19 18 17 17 17 17 17 17 17 17 17 17 17 17 16 16 17 16 16 16 16
36 37 37 36 34 30 30 27 27 29 30 30 30 27 26 26 26 27 24 22 22 20 20 20 20 19 18 18 18 18 18 18 18 17 17 17 17 17 17 18 18 17 17 18
34 36 36 33 32 34 32 27 26 28 30 31 31 29 28 28 28 26 24 23 23 21 21 21 21 19 19 19 19 19 19 19 18 18 18 17 18 18 19 19 19 18 19 19
33 34 34 32 30 31 32 30 28 28 29 30 31 30 30 30 29 27 26 24 24 23 23 22 21 20 20 20 20 20 20 20 19 19 18 18 19 18 19 19 19 19 19 19
33 33 34 33 29 29 31 30 29 29 31 32 32 33 32 30 30 29 27 26 25 24 23 23 22 21 21 21 21 20 20 20 20 19 19 19 19 19 19 19 19 20 20 21
32 33 33 32 30 28 27 29 28 29 30 31 31 32 32 31 30 28 26 27 26 24 24 23 23 22 22 21 22 22 22 21 21 20 19 19 19 19 20 20 21 21 22 22
32 32 33 32 30 29 27 27 28 29 30 31 31 31 31 30 30 29 27 27 27 24 23 24 23 23 23 22 22 22 21 21 21 20 20 20 20 20 21 22 22 22 22 22
31 31 31 32 33 30 30 32 32 31 31 31 30 30 29 29 29 29 28 27 24 24 24 24 24 24 24 24 23 22 22 22 22 21 21 21 21 22 23 23 24 23 23 23
31 32 32 33 35 33 31 30 31 32 31 30 29 28 28 28 29 28 26 25 24 23 23 23 23 23 23 23 23 24 24 24 23 23 22 23 23 24 24 24 24 24 24 24
32 33 34 34 35 35 35 32 31 31 30 29 27 28 28 28 29 28 27 25 24 24 24 24 24 24 24 24 23 23 23 24 24 24 23 23 24 25 25 26 25 25 24 24
32 33 34 35 35 34 33 32 31 31 30 28 27 27 29 29 28 26 25 25 25 25 24 24 24 25 24 24 24 24 24 24 24 24 23 24 25 25 26 26 25 24 24 23
Wind_Direction
211 208 207 213 216 202 203 209 221 232 255 260 272 286 300 319 327 333 342 355 3 5 10 12 17 22 24 23 23 24 25 23 20 17 14 16 15 16 15 13 9 10 16 15
215 213 210 214 219 214 209 211 219 229 247 251 257 276 275 291 313 323 336 346 359 0 4 10 13 18 19 17 16 14 16 18 18 17 15 14 12 10 10 6 2 357 358 357
219 218 219 218 219 217 215 216 221 228 245 250 253 262 272 275 295 308 324 330 342 356 357 2 5 6 9 11 9 8 8 7 7 9 10 10 10 6 4 4 360 354 349 348
218 217 220 222 220 217 220 220 223 229 235 246 258 267 269 282 284 297 309 317 327 341 351 355 356 358 4 8 6 4 4 4 6 8 7 6 6 2 1 1 360 352 348 346
220 219 221 221 219 219 219 222 224 227 235 238 248 262 265 278 282 293 302 306 318 327 339 342 345 353 355 358 360 1 2 2 4 5 4 2 2 1 360 358 356 353 348 347
220 224 226 224 220 220 223 222 227 226 232 241 237 251 266 268 276 280 291 298 309 314 324 325 332 342 346 348 352 356 357 358 359 358 357 356 356 356 354 352 350 347 345 342
221 223 227 225 222 222 224 223 226 229 234 240 238 243 257 267 272 270 281 288 294 300 308 314 322 330 334 338 344 348 350 351 352 353 353 352 351 349 347 347 344 341 340 338
227 227 226 226 225 224 225 223 222 227 240 251 247 244 251 259 266 267 268 274 281 288 294 301 312 320 323 328 334 339 342 343 345 348 348 347 345 344 343 342 341 339 337 337
226 232 230 229 226 225 226 222 221 230 237 243 245 247 256 259 263 269 270 267 271 277 280 291 303 313 315 321 324 328 332 335 337 340 343 343 343 341 341 340 339 339 334 331
217 227 229 231 228 226 224 227 219 221 231 239 250 253 252 255 265 268 265 265 265 270 273 280 293 304 310 315 318 322 326 328 330 333 334 337 338 336 335 334 334 336 334 327
216 220 223 231 231 228 223 221 222 222 225 233 244 255 256 256 265 271 269 266 266 267 269 276 288 296 302 308 314 317 322 325 326 327 328 329 331 330 328 329 329 330 331 331
216 218 220 232 236 230 226 223 221 223 225 223 232 250 249 254 265 268 266 263 263 267 267 273 284 289 294 302 308 313 317 320 321 323 324 325 326 326 324 324 326 326 325 326
216 217 217 224 233 231 224 223 221 223 227 225 226 243 252 259 258 262 261 261 262 265 265 270 277 284 290 296 302 308 310 314 318 321 322 324 324 322 320 322 322 320 319 321
218 219 217 217 228 233 229 223 222 221 224 227 226 238 251 259 260 257 258 259 261 263 264 266 272 279 286 292 296 302 306 310 314 316 319 323 323 320 320 321 322 321 318 318
219 220 218 212 214 231 238 228 223 223 223 224 228 234 244 256 259 258 259 260 260 262 262 263 268 274 281 288 294 297 303 306 309 310 312 316 320 321 321 323 323 322 318 316
220 219 218 215 210 217 229 233 227 227 225 224 224 231 239 250 255 258 261 260 257 258 259 261 265 270 277 284 291 296 299 302 306 307 308 310 313 317 319 319 319 318 317 317
221 221 220 219 216 218 222 226 227 227 226 223 225 228 233 240 250 258 260 258 255 257 258 260 264 268 274 279 286 293 299 300 302 304 306 306 306 309 312 314 314 313 313 314
222 220 221 219 219 223 223 222 224 226 226 225 226 228 232 240 245 253 257 255 253 254 254 257 263 266 271 276 282 288 294 297 299 301 303 303 303 306 307 312 311 310 312 315
221 219 218 216 221 227 223 221 222 224 225 225 225 226 231 240 246 249 252 253 253 252 255 257 261 264 268 273 280 285 289 294 296 298 298 299 300 303 306 311 312 311 314 315
218 217 217 214 216 222 226 224 224 226 230 227 226 228 231 237 244 248 250 251 252 252 255 258 258 261 266 271 277 281 285 289 291 293 294 297 298 300 303 307 309 309 311 312
218 216 215 213 214 219 225 228 227 227 231 231 228 231 233 235 240 247 250 250 251 252 253 255 257 259 265 270 274 278 281 283 287 289 292 295 295 297 300 303 306 307 309 311
218 217 216 212 214 221 221 224 224 227 230 232 232 233 234 237 239 242 245 247 250 252 251 252 254 258 263 267 271 274 276 280 283 286 290 293 294 295 297 301 306 307 308 308
216 216 217 217 216 218 220 223 226 229 231 232 232 234 236 237 239 241 244 248 250 250 249 251 253 256 260 265 269 271 273 277 281 284 286 289 293 295 297 301 304 306 306 306
216 214 213 217 217 219 223 222 228 230 231 233 236 237 238 238 240 242 243 246 251 248 248 251 253 256 261 265 267 268 270 274 278 281 283 286 291 294 298 300 301 304 305 304
212 213 214 219 219 221 224 225 226 228 231 234 234 234 233 235 238 240 241 245 246 246 246 249 252 256 261 264 268 270 272 275 277 281 284 288 292 295 296 298 299 302 304 305
206 210 212 215 219 222 222 223 224 229 232 232 233 234 234 236 238 239 240 241 242 245 246 247 249 253 258 263 266 269 271 276 279 281 285 289 292 295 296 296 298 301 304 304
Height
5915 5919 5922 5925 5928 5932 5935 5937 5940 5940 5939 5938 5937 5937 5935 5935 5934 5932 5930 5929 5928 5927 5926 5925 5924 5923 5922 5920 5919 5918 5917 5915 5914 5913 5912 5911 5909 5908 5907 5906 5905 5904 5904 5903
5913 5916 5921 5924 5927 5930 5933 5935 5938 5939 5938 5938 5938 5937 5936 5935 5934 5933 5931 5930 5929 5928 5927 5926 5925 5924 5923 5922 5920 5919 5918 5917 5915 5914 5913 5911 5910 5909 5908 5906 5906 5905 5904 5903
5909 5915 5918 5921 5923 5927 5930 5933 5936 5937 5937 5937 5937 5937 5936 5934 5932 5933 5932 5931 5930 5929 5928 5927 5926 5925 5923 5922 5921 5920 5919 5918 5916 5914 5913 5912 5910 5909 5908 5907 5905 5905 5904 5903
5905 5911 5914 5917 5920 5924 5927 5930 5933 5934 5935 5935 5936 5935 5934 5933 5931 5930 5931 5931 5930 5929 5928 5927 5927 5925 5924 5923 5922 5921 5920 5918 5917 5915 5913 5912 5911 5910 5908 5907 5906 5904 5903 5902
5901 5905 5909 5913 5917 5921 5924 5927 5928 5931 5932 5933 5935 5935 5933 5932 5931 5931 5931 5930 5930 5929 5928 5928 5927 5926 5925 5924 5923 5921 5920 5919 5917 5916 5914 5913 5911 5910 5908 5907 5905 5904 5903 5902
5897 5901 5904 5908 5913 5917 5920 5922 5924 5926 5929 5930 5932 5933 5932 5930 5930 5930 5930 5930 5929 5929 5928 5927 5927 5926 5925 5924 5923 5922 5920 5919 5917 5916 5915 5913 5911 5910 5908 5907 5905 5904 5902 5901
5891 5895 5900 5904 5908 5912 5915 5919 5922 5923 5925 5927 5930 5931 5931 5929 5928 5928 5929 5929 5928 5928 5928 5927 5927 5926 5925 5924 5923 5922 5920 5919 5917 5916 5914 5913 5911 5910 5908 5906 5905 5903 5901 5899
5887 5891 5895 5899 5903 5907 5910 5915 5919 5922 5924 5925 5926 5927 5929 5927 5926 5926 5927 5927 5927 5927 5927 5926 5926 5925 5924 5924 5922 5921 5920 5918 5917 5915 5914 5912 5911 5909 5907 5906 5904 5902 5900 5899
5882 5887 5891 5893 5898 5903 5906 5910 5915 5919 5921 5923 5923 5924 5925 5925 5925 5925 5925 5925 5925 5925 5925 5925 5925 5924 5924 5923 5922 5920 5919 5918 5916 5915 5913 5912 5910 5908 5906 5905 5903 5901 5899 5898
5877 5881 5885 5888 5892 5896 5902 5906 5910 5914 5917 5919 5921 5920 5921 5920 5922 5923 5923 5923 5922 5923 5924 5923 5923 5923 5922 5921 5920 5919 5918 5917 5915 5914 5912 5910 5909 5907 5905 5903 5901 5899 5897 5896
5870 5876 5881 5883 5885 5891 5896 5900 5904 5909 5912 5916 5918 5919 5917 5917 5919 5920 5920 5920 5920 5921 5921 5921 5921 5921 5920 5920 5919 5917 5917 5915 5913 5912 5911 5909 5907 5905 5903 5902 5900 5898 5896 5894
5863 5869 5874 5877 5881 5885 5890 5894 5899 5903 5906 5909 5913 5916 5913 5914 5915 5916 5917 5917 5917 5918 5919 5919 5919 5918 5918 5917 5917 5916 5915 5914 5912 5910 5908 5906 5905 5903 5901 5900 5898 5897 5895 5893
5856 5862 5867 5872 5877 5879 5883 5888 5893 5897 5901 5904 5909 5912 5909 5910 5910 5911 5912 5914 5914 5915 5915 5916 5916 5916 5916 5915 5914 5914 5913 5912 5910 5908 5906 5904 5903 5901 5899 5898 5897 5895 5893 5891
5849 5854 5860 5867 5871 5873 5876 5881 5886 5891 5895 5899 5903 5905 5905 5905 5906 5907 5908 5909 5910 5911 5912 5913 5913 5913 5913 5913 5912 5911 5911 5909 5908 5906 5905 5903 5901 5899 5897 5896 5894 5892 5891 5889
5841 5846 5852 5859 5865 5869 5871 5875 5880 5884 5888 5894 5898 5900 5901 5901 5902 5902 5903 5905 5906 5908 5909 5910 5910 5910 5910 5910 5909 5908 5908 5907 5906 5904 5903 5901 5899 5897 5895 5894 5892 5890 5889 5887
5833 5839 5845 5851 5857 5862 5866 5869 5873 5878 5883 5888 5892 5895 5897 5897 5897 5897 5898 5901 5902 5903 5904 5905 5906 5907 5907 5907 5906 5906 5905 5904 5903 5901 5900 5898 5897 5895 5893 5891 5890 5888 5886 5884
5827 5833 5838 5844 5851 5854 5858 5863 5867 5872 5876 5881 5885 5889 5890 5890 5891 5892 5894 5896 5897 5899 5900 5901 5902 5903 5903 5903 5903 5902 5902 5901 5900 5898 5897 5896 5894 5892 5890 5888 5886 5885 5883 5881
5821 5826 5832 5838 5844 5847 5855 5859 5862 5865 5870 5874 5878 5881 5883 5884 5886 5887 5889 5890 5892 5894 5894 5895 5897 5898 5899 5899 5899 5898 5898 5897 5896 5895 5894 5892 5891 5889 5888 5885 5883 5882 5880 5878
5815 5821 5826 5832 5837 5841 5847 5851 5855 5859 5863 5866 5870 5873 5876 5878 5880 5882 5884 5885 5887 5889 5889 5890 5892 5894 5894 5894 5894 5894 5894 5893 5892 5891 5890 5889 5887 5886 5884 5882 5880 5878 5876 5875
5809 5815 5821 5826 5831 5836 5841 5845 5848 5853 5855 5859 5862 5865 5868 5872 5875 5876 5878 5880 5882 5883 5884 5885 5887 5889 5890 5890 5890 5890 5890 5889 5889 5888 5886 5885 5884 5882 5881 5879 5877 5875 5873 5871
5803 5808 5814 5819 5825 5830 5835 5838 5842 5846 5849 5851 5854 5858 5862 5865 5869 5870 5872 5873 5875 5877 5879 5881 5883 5884 5885 5886 5886 5886 5885 5885 5884 5884 5882 5881 5880 5878 5877 5875 5873 5871 5869 5867
5799 5804 5809 5814 5819 5825 5828 5831 5834 5838 5842 5845 5848 5851 5855 5859 5861 5863 5866 5867 5869 5871 5873 5876 5877 5879 5880 5880 5881 5881 5881 5880 5880 5879 5878 5877 5876 5874 5873 5871 5869 5866 5864 5862
5794 5800 5805 5809 5814 5816 5819 5822 5826 5831 5835 5838 5842 5845 5849 5852 5855 5858 5860 5862 5864 5866 5868 5870 5872 5873 5874 5875 5875 5876 5876 5875 5875 5874 5874 5873 5871 5870 5868 5866 5864 5862 5860 5858
5788 5793 5798 5802 5806 5809 5812 5816 5820 5824 5829 5832 5836 5839 5843 5846 5849 5852 5854 5856 5858 5860 5863 5865 5866 5868 5869 5869 5870 5870 5870 5870 5870 5869 5868 5868 5866 5865 5863 5861 5859 5857 5855 5853
5781 5786 5791 5794 5799 5803 5806 5810 5814 5819 5822 5825 5829 5833 5837 5839 5842 5846 5849 5851 5853 5854 5857 5859 5861 5862 5863 5864 5865 5865 5865 5865 5864 5864 5863 5862 5861 5859 5857 5855 5854 5852 5850 5847
5774 5779 5784 5787 5792 5796 5800 5803 5808 5812 5816 5820 5823 5827 5830 5833 5836 5839 5842 5845 5848 5849 5851 5853 5855 5856 5858 5858 5859 5859 5859 5859 5859 5858 5857 5856 5855 5853 5852 5850 5848 5846 5844 5841